Date String (YYYY-MM-DD hh:mm:ss) UTC,Instrument flags,Ambient pressure (hPa),Sample flow (lpm),Bypass flow (lpm),Sample temperature (°C),Ambient temperature (°C),ASC tube jacket temperature (°C),LED temperature (°C),Box temperature (°C),Sample RH (%),Span deviation,Mass concentration (μg/m³),Mass concentration (μg/m³),Mass concentration (μg/m³)
DateTimeUTC,F1_M11,P_M11,Q1_M11,Q2_M11,T1_M11,T2_M11,T3_M11,T4_M11,T5_M11,U1_M11,ZSPAN_M11,X0_M11,X2_M11,X1_M11
2022-03-11 03:00:00,,0825.2,5.01,0.00,22.6,22.5,00.0,31.5,24.4,06.1,0002.3,0009.80,0006.76,0006.35
2022-03-11 03:01:00,,0825.2,5.00,0.00,22.6,22.3,00.0,31.5,24.3,06.1,0002.6,0009.82,0006.79,0006.39
2022-03-11 03:02:00,,0825.2,4.99,0.00,22.6,22.1,00.0,31.5,24.3,06.1,0002.1,0009.80,0006.80,0006.41
2022-03-11 03:03:00,,0825.2,5.00,0.00,22.5,22.0,00.0,31.5,24.3,06.1,0000.9,0009.82,0006.81,0006.44
2022-03-11 03:04:00,,0825.3,5.01,0.00,22.5,21.9,00.0,31.5,24.2,06.1,0000.2,0009.82,0006.84,0006.45
2022-03-11 03:05:00,,0825.3,5.00,0.00,22.5,21.8,00.0,31.4,24.2,06.1,0000.1,0009.38,0006.85,0006.48
2022-03-11 03:06:00,,0825.3,5.00,0.00,22.4,21.7,00.0,31.4,24.2,06.1,0000.0,0009.34,0006.86,0006.51
2022-03-11 03:07:00,,0825.3,4.99,0.00,22.4,21.6,00.0,31.4,24.1,06.1,0000.0,0009.41,0006.90,0006.56
2022-03-11 03:08:00,,0825.3,4.99,0.00,22.4,21.6,00.0,31.4,24.1,06.1,0000.4,0009.65,0006.90,0006.58
2022-03-11 03:09:00,,0825.3,5.01,0.00,22.4,21.5,00.0,31.4,24.1,06.1,0000.1,0009.70,0006.91,0006.60
2022-03-11 03:10:00,,0825.4,5.00,0.00,22.3,21.5,00.0,31.4,24.0,06.1,-000.1,0009.79,0006.88,0006.58
2022-03-11 03:11:00,,0825.3,5.00,0.00,22.4,21.9,00.0,31.4,24.1,06.1,0000.3,0009.79,0006.87,0006.55
2022-03-11 03:12:00,,0825.4,4.98,0.00,22.5,22.5,00.0,31.4,24.3,06.1,0000.0,0009.87,0006.88,0006.53
2022-03-11 03:13:00,,0825.4,5.01,0.00,22.6,23.2,00.0,31.5,24.5,06.1,0000.0,0010.15,0006.89,0006.53
2022-03-11 03:14:00,,0825.4,4.99,0.00,22.7,23.2,00.0,31.5,24.7,06.0,0000.8,0010.17,0006.89,0006.52
2022-03-11 03:15:00,,0825.4,5.01,0.00,22.7,23.0,00.0,31.5,24.6,06.0,0001.9,0010.18,0006.91,0006.54
2022-03-11 03:16:00,,0825.4,4.98,0.00,22.7,22.7,00.0,31.5,24.6,06.0,0001.2,0010.24,0006.93,0006.57
2022-03-11 03:17:00,,0825.4,5.01,0.00,22.7,22.5,00.0,31.5,24.5,06.0,0001.4,0010.32,0006.96,0006.60
2022-03-11 03:18:00,,0825.5,4.99,0.00,22.6,22.3,00.0,31.5,24.4,06.0,0001.6,0010.28,0006.94,0006.59
2022-03-11 03:19:00,,0825.5,4.99,0.00,22.6,22.1,00.0,31.5,24.3,06.1,0000.0,0009.97,0006.92,0006.57
2022-03-11 03:20:00,,0825.4,5.00,0.00,22.6,21.9,00.0,31.5,24.3,06.1,0000.0,0009.92,0006.91,0006.56
2022-03-11 03:21:00,,0825.5,5.00,0.00,22.5,21.8,00.0,31.5,24.2,06.1,0000.0,0009.69,0006.92,0006.58
2022-03-11 03:22:00,,0825.4,5.00,0.00,22.5,21.7,00.0,31.5,24.1,06.1,0001.4,0009.63,0006.91,0006.61
2022-03-11 03:23:00,,0825.4,5.01,0.00,22.4,21.6,00.0,31.5,24.1,06.1,0001.2,0009.66,0006.93,0006.63
2022-03-11 03:24:00,,0825.5,5.00,0.00,22.4,21.5,00.0,31.5,24.0,06.2,0000.8,0009.46,0006.96,0006.66
2022-03-11 03:25:00,,0825.5,4.99,0.00,22.3,21.4,00.0,31.4,23.9,06.2,0000.5,0009.47,0006.99,0006.69
2022-03-11 03:26:00,,0825.5,5.01,0.00,22.2,21.3,00.0,31.4,23.8,06.2,0000.6,0009.54,0007.01,0006.71
2022-03-11 03:27:00,,0825.5,5.00,0.00,22.3,21.8,00.0,31.4,24.0,06.2,0000.9,0009.47,0007.01,0006.71
2022-03-11 03:28:00,,0825.5,4.98,0.00,22.4,22.4,00.0,31.5,24.2,06.2,0000.8,0009.45,0007.03,0006.72
2022-03-11 03:29:00,,0825.6,5.01,0.00,22.5,23.0,00.0,31.5,24.4,06.2,0000.7,0009.53,0007.05,0006.73
2022-03-11 03:30:00,,0825.5,4.99,0.00,22.6,23.0,00.0,31.5,24.5,06.1,0000.2,0009.57,0007.09,0006.76
2022-03-11 03:31:00,,0825.5,5.01,0.00,22.6,22.8,00.0,31.5,24.4,06.1,0000.3,0009.61,0007.12,0006.78
2022-03-11 03:32:00,,0825.5,5.00,0.00,22.6,22.5,00.0,31.5,24.3,06.1,0000.4,0009.68,0007.17,0006.79
2022-03-11 03:33:00,,0825.6,5.00,0.00,22.5,22.2,00.0,31.5,24.2,06.2,0000.0,0009.74,0007.18,0006.78
2022-03-11 03:34:00,,0825.6,4.99,0.00,22.5,22.0,00.0,31.5,24.1,06.2,0000.0,0009.69,0007.16,0006.78
2022-03-11 03:35:00,,0825.6,4.99,0.00,22.4,21.8,00.0,31.5,24.0,06.2,0000.0,0009.69,0007.20,0006.78
2022-03-11 03:36:00,,0825.6,4.99,0.00,22.4,21.7,00.0,31.5,23.9,06.2,0000.0,0009.74,0007.24,0006.81
2022-03-11 03:37:00,,0825.6,5.01,0.00,22.3,21.5,00.0,31.4,23.9,06.2,0000.0,0009.75,0007.27,0006.83
2022-03-11 03:38:00,,0825.7,5.00,0.00,22.2,21.4,00.0,31.4,23.8,06.3,0000.0,0009.76,0007.28,0006.84
2022-03-11 03:39:00,,0825.6,5.00,0.00,22.2,21.3,00.0,31.4,23.7,06.3,0000.0,0010.30,0007.30,0006.88
2022-03-11 03:40:00,,0825.6,5.01,0.00,22.1,21.2,00.0,31.4,23.6,06.3,0000.0,0011.14,0007.43,0006.99
2022-03-11 03:41:00,,0825.7,5.00,0.00,22.1,21.4,00.0,31.4,23.7,06.3,0000.0,0011.23,0007.52,0007.08
2022-03-11 03:42:00,,0825.7,5.00,0.00,22.2,22.0,00.0,31.4,23.9,06.3,0000.0,0011.33,0007.64,0007.20
2022-03-11 03:43:00,,0825.7,4.99,0.00,22.3,22.7,00.0,31.4,24.2,06.2,0000.0,0011.40,0007.72,0007.31
2022-03-11 03:44:00,,0825.8,5.00,0.00,22.5,23.0,00.0,31.4,24.4,06.2,0000.2,0011.46,0007.83,0007.41
2022-03-11 03:45:00,,0825.8,5.01,0.00,22.5,22.8,00.0,31.4,24.3,06.2,0003.3,0011.51,0007.91,0007.51
2022-03-11 03:46:00,,0825.7,5.01,0.00,22.5,22.5,00.0,31.4,24.2,06.2,0003.1,0011.48,0007.95,0007.59
2022-03-11 03:47:00,,0825.8,5.00,0.00,22.4,22.2,00.0,31.4,24.1,06.2,0003.2,0011.56,0008.03,0007.69
2022-03-11 03:48:00,,0825.9,5.00,0.00,22.3,22.0,00.0,31.4,24.0,06.2,0002.7,0011.66,0008.11,0007.79
2022-03-11 03:49:00,,0825.9,4.99,0.00,22.3,21.8,00.0,31.4,23.9,06.2,0002.4,0011.97,0008.23,0007.89
2022-03-11 03:50:00,,0825.9,5.00,0.00,22.2,21.6,00.0,31.4,23.8,06.2,0002.0,0011.59,0008.31,0007.97
2022-03-11 03:51:00,,0825.9,5.00,0.00,22.2,21.4,00.0,31.3,23.7,06.2,0001.8,0011.06,0008.33,0008.00
2022-03-11 03:52:00,,0825.9,5.01,0.00,22.1,21.3,00.0,31.3,23.6,06.2,0001.8,0011.12,0008.35,0008.03
2022-03-11 03:53:00,,0825.8,5.00,0.00,22.0,21.1,00.0,31.3,23.6,06.2,0001.5,0011.21,0008.36,0008.02
2022-03-11 03:54:00,,0825.9,5.00,0.00,22.0,21.2,00.0,31.3,23.5,06.2,0001.6,0011.37,0008.39,0008.05
2022-03-11 03:55:00,,0826.0,5.00,0.00,22.1,21.8,00.0,31.3,23.7,06.2,0001.2,0011.57,0008.44,0008.10
2022-03-11 03:56:00,,0826.0,4.99,0.00,22.2,22.4,00.0,31.3,24.0,06.2,0000.9,0011.82,0008.53,0008.14
2022-03-11 03:57:00,,0826.0,5.00,0.00,22.3,23.0,00.0,31.3,24.2,06.1,0000.7,0011.93,0008.59,0008.17
2022-03-11 03:58:00,,0826.1,5.01,0.00,22.4,22.8,00.0,31.3,24.3,06.1,0000.1,0011.91,0008.60,0008.18
2022-03-11 03:59:00,,0826.0,4.99,0.00,22.4,22.5,00.0,31.3,24.2,06.1,0000.5,0011.90,0008.64,0008.22
